Time,TemperatureF,DewpointF,PressureIn,WindDirection,WindDirectionDegrees,WindSpeedMPH,WindSpeedGustMPH,Humidity,HourlyPrecipIn,Conditions,Clouds,dailyrainin,SoftwareType,DateUTC
2013-09-19 00:01:00,58.6,56.3,30.13,WSW,239,0.0,1.0,92,0.00,,,0.00,meteohub,2013-09-19 04:01:00,
2013-09-19 00:02:00,58.5,56.1,30.12,WSW,239,0.0,1.0,92,0.00,,,0.00,meteohub,2013-09-19 04:02:00,
2013-09-19 00:03:00,58.5,56.1,30.12,WSW,239,0.0,1.0,92,0.00,,,0.00,meteohub,2013-09-19 04:03:00,
2013-09-19 00:08:00,58.5,56.1,30.13,WSW,239,0.0,1.0,92,0.00,,,0.00,meteohub,2013-09-19 04:08:00,
2013-09-19 00:10:00,58.5,56.1,30.13,WSW,239,0.0,1.0,92,0.00,,,0.00,meteohub,2013-09-19 04:10:00,
2013-09-19 00:15:00,58.5,56.1,30.13,WSW,239,0.0,2.0,92,0.00,,,0.00,meteohub,2013-09-19 04:15:00,
2013-09-19 00:20:00,57.9,55.2,30.13,WSW,239,0.0,3.0,91,0.00,,,0.00,meteohub,2013-09-19 04:20:00,
2013-09-19 00:25:00,57.6,55.0,30.13,WSW,239,0.0,3.0,91,0.00,,,0.00,meteohub,2013-09-19 04:25:00,
2013-09-19 00:30:00,56.7,53.8,30.13,WSW,239,0.0,2.0,90,0.00,,,0.00,meteohub,2013-09-19 04:30:00,
2013-09-19 00:35:00,56.3,53.8,30.13,WSW,239,0.0,2.0,91,0.00,,,0.00,meteohub,2013-09-19 04:35:00,
2013-09-19 00:40:00,56.3,54.3,30.13,WSW,239,0.0,2.0,93,0.00,,,0.00,meteohub,2013-09-19 04:40:00,
2013-09-19 00:45:00,56.8,55.2,30.13,WSW,239,0.0,1.0,94,0.00,,,0.00,meteohub,2013-09-19 04:45:00,
2013-09-19 00:50:00,57.0,55.6,30.12,WSW,239,0.0,1.0,95,0.00,,,0.00,meteohub,2013-09-19 04:50:00,
2013-09-19 00:55:00,56.8,55.2,30.12,WSW,239,0.0,1.0,94,0.00,,,0.00,meteohub,2013-09-19 04:55:00,
2013-09-19 01:00:00,56.7,55.0,30.13,WSW,239,0.0,1.0,94,0.00,,,0.00,meteohub,2013-09-19 05:00:00,
2013-09-19 01:05:00,56.8,55.4,30.13,WSW,239,0.0,2.0,95,0.00,,,0.00,meteohub,2013-09-19 05:05:00,
2013-09-19 01:10:00,57.2,56.1,30.12,WSW,239,0.0,2.0,96,0.00,,,0.00,meteohub,2013-09-19 05:10:00,
2013-09-19 01:16:00,57.4,55.9,30.12,WSW,239,1.0,2.0,95,0.00,,,0.00,meteohub,2013-09-19 05:16:00,
2013-09-19 01:21:00,57.6,56.5,30.12,WSW,240,0.0,2.0,96,0.00,,,0.00,meteohub,2013-09-19 05:21:00,
2013-09-19 01:26:00,57.9,56.8,30.12,West,267,2.0,3.0,96,0.00,,,0.00,meteohub,2013-09-19 05:26:00,
2013-09-19 01:31:00,57.9,56.5,30.12,West,267,2.0,4.0,95,0.00,,,0.00,meteohub,2013-09-19 05:31:00,
2013-09-19 01:36:00,58.1,56.7,30.12,WNW,295,0.0,4.0,95,0.00,,,0.00,meteohub,2013-09-19 05:36:00,
2013-09-19 01:41:00,58.3,56.8,30.13,WNW,298,1.0,5.0,95,0.00,,,0.00,meteohub,2013-09-19 05:41:00,
2013-09-19 01:46:00,58.3,56.8,30.13,WNW,288,1.0,5.0,95,0.00,,,0.00,meteohub,2013-09-19 05:46:00,
2013-09-19 01:51:00,58.3,56.8,30.13,WNW,297,2.0,3.0,95,0.00,,,0.00,meteohub,2013-09-19 05:51:00,
2013-09-19 01:56:00,58.3,56.8,30.13,WNW,286,1.0,4.0,95,0.00,,,0.00,meteohub,2013-09-19 05:56:00,
2013-09-19 02:01:00,58.3,56.8,30.13,WNW,286,0.0,4.0,95,0.00,,,0.00,meteohub,2013-09-19 06:01:00,
2013-09-19 02:06:00,58.3,56.8,30.13,NW,305,1.0,4.0,95,0.00,,,0.00,meteohub,2013-09-19 06:06:00,
2013-09-19 02:11:00,58.1,56.7,30.12,NW,304,2.0,4.0,95,0.00,,,0.00,meteohub,2013-09-19 06:11:00,
2013-09-19 02:16:00,57.9,56.5,30.12,NW,304,1.0,4.0,95,0.00,,,0.00,meteohub,2013-09-19 06:16:00,
2013-09-19 02:21:00,57.9,56.5,30.12,WNW,283,1.0,2.0,95,0.00,,,0.00,meteohub,2013-09-19 06:21:00,
2013-09-19 02:26:00,58.3,56.8,30.12,WNW,300,4.0,4.0,95,0.00,,,0.00,meteohub,2013-09-19 06:26:00,
2013-09-19 02:31:00,58.3,57.2,30.12,West,271,0.0,8.0,96,0.00,,,0.00,meteohub,2013-09-19 06:31:00,
2013-09-19 02:36:00,58.3,57.2,30.12,WSW,248,2.0,8.0,96,0.00,,,0.00,meteohub,2013-09-19 06:36:00,
2013-09-19 02:42:00,58.3,57.2,30.12,NW,312,3.0,8.0,96,0.00,,,0.00,meteohub,2013-09-19 06:42:00,
2013-09-19 02:47:00,58.3,57.2,30.12,SW,217,3.0,8.0,96,0.00,,,0.00,meteohub,2013-09-19 06:47:00,
2013-09-19 02:52:00,58.1,57.0,30.12,WNW,293,4.0,7.0,96,0.00,,,0.00,meteohub,2013-09-19 06:52:00,
2013-09-19 02:57:00,57.9,56.8,30.12,WNW,293,1.0,7.0,96,0.00,,,0.00,meteohub,2013-09-19 06:57:00,
2013-09-19 03:02:00,57.9,56.8,30.12,NW,318,2.0,7.0,96,0.00,,,0.00,meteohub,2013-09-19 07:02:00,
2013-09-19 03:07:00,57.9,56.8,30.12,WNW,300,2.0,7.0,96,0.00,,,0.00,meteohub,2013-09-19 07:07:00,
2013-09-19 03:12:00,57.9,56.8,30.11,WNW,288,2.0,5.0,96,0.00,,,0.00,meteohub,2013-09-19 07:12:00,
2013-09-19 03:17:00,57.9,56.8,30.11,WNW,288,2.0,6.0,96,0.00,,,0.00,meteohub,2013-09-19 07:17:00,
2013-09-19 03:22:00,57.9,56.8,30.11,NNW,331,3.0,6.0,96,0.00,,,0.00,meteohub,2013-09-19 07:22:00,
2013-09-19 03:27:00,57.9,57.0,30.12,NW,321,4.0,6.0,97,0.00,,,0.00,meteohub,2013-09-19 07:27:00,
2013-09-19 03:32:00,57.9,57.0,30.12,West,263,3.0,8.0,97,0.00,,,0.00,meteohub,2013-09-19 07:32:00,
2013-09-19 03:37:00,58.1,57.2,30.12,NW,307,2.0,8.0,97,0.00,,,0.00,meteohub,2013-09-19 07:37:00,
2013-09-19 03:42:00,58.3,57.4,30.12,West,280,1.0,7.0,97,0.00,,,0.00,meteohub,2013-09-19 07:42:00,
2013-09-19 03:47:00,58.3,57.4,30.12,West,269,3.0,5.0,97,0.00,,,0.00,meteohub,2013-09-19 07:47:00,
2013-09-19 03:52:00,58.5,57.6,30.12,WNW,301,3.0,9.0,97,0.00,,,0.00,meteohub,2013-09-19 07:52:00,
2013-09-19 03:57:00,58.5,57.6,30.12,NNW,340,7.0,9.0,97,0.00,,,0.00,meteohub,2013-09-19 07:57:00,
2013-09-19 04:02:00,58.6,57.7,30.12,WNW,300,2.0,9.0,97,0.00,,,0.00,meteohub,2013-09-19 08:02:00,
2013-09-19 04:07:00,58.6,57.7,30.12,WNW,299,0.0,9.0,97,0.00,,,0.00,meteohub,2013-09-19 08:07:00,
2013-09-19 04:12:00,58.6,57.7,30.11,West,269,3.0,9.0,97,0.00,,,0.00,meteohub,2013-09-19 08:12:00,
2013-09-19 04:17:00,58.6,57.7,30.12,NW,310,2.0,6.0,97,0.00,,,0.00,meteohub,2013-09-19 08:17:00,
2013-09-19 04:22:00,58.8,57.9,30.11,West,274,2.0,6.0,97,0.00,,,0.00,meteohub,2013-09-19 08:22:00,
2013-09-19 04:27:00,58.8,57.9,30.11,WNW,286,3.0,6.0,97,0.00,,,0.00,meteohub,2013-09-19 08:27:00,
2013-09-19 04:32:00,58.8,57.9,30.11,WNW,294,4.0,6.0,97,0.00,,,0.00,meteohub,2013-09-19 08:32:00,
2013-09-19 04:37:00,59.0,58.1,30.11,WNW,283,2.0,6.0,97,0.00,,,0.00,meteohub,2013-09-19 08:37:00,
2013-09-19 04:42:00,59.2,58.3,30.11,WNW,293,1.0,5.0,97,0.00,,,0.00,meteohub,2013-09-19 08:42:00,
2013-09-19 04:47:00,59.2,58.3,30.11,WNW,298,1.0,6.0,97,0.00,,,0.00,meteohub,2013-09-19 08:47:00,
2013-09-19 04:52:00,59.4,58.5,30.10,West,280,0.0,6.0,97,0.00,,,0.00,meteohub,2013-09-19 08:52:00,
2013-09-19 04:57:00,59.4,58.5,30.10,WSW,242,0.0,5.0,97,0.00,,,0.00,meteohub,2013-09-19 08:57:00,
2013-09-19 05:02:00,59.4,58.5,30.11,NNW,336,1.0,5.0,97,0.00,,,0.00,meteohub,2013-09-19 09:02:00,
2013-09-19 05:07:00,59.5,58.6,30.10,West,278,2.0,6.0,97,0.00,,,0.00,meteohub,2013-09-19 09:07:00,
2013-09-19 05:12:00,59.5,58.6,30.11,WNW,286,2.0,6.0,97,0.00,,,0.00,meteohub,2013-09-19 09:12:00,
2013-09-19 05:17:00,59.5,58.6,30.11,WNW,294,1.0,6.0,97,0.00,,,0.00,meteohub,2013-09-19 09:17:00,
2013-09-19 05:22:00,59.5,58.6,30.11,West,278,1.0,9.0,97,0.00,,,0.00,meteohub,2013-09-19 09:22:00,
2013-09-19 05:27:00,59.7,58.8,30.10,SSW,213,2.0,9.0,97,0.00,,,0.00,meteohub,2013-09-19 09:27:00,
2013-09-19 05:32:00,59.7,58.8,30.11,WSW,252,2.0,9.0,97,0.00,,,0.00,meteohub,2013-09-19 09:32:00,
2013-09-19 05:37:00,59.7,58.8,30.10,WNW,289,1.0,6.0,97,0.00,,,0.00,meteohub,2013-09-19 09:37:00,
2013-09-19 05:42:00,59.7,58.8,30.10,WNW,288,1.0,6.0,97,0.00,,,0.00,meteohub,2013-09-19 09:42:00,
2013-09-19 05:47:00,59.7,58.8,30.10,WSW,257,1.0,5.0,97,0.00,,,0.00,meteohub,2013-09-19 09:47:00,
2013-09-19 05:52:00,59.7,58.8,30.10,NW,304,2.0,6.0,97,0.00,,,0.00,meteohub,2013-09-19 09:52:00,
2013-09-19 05:57:00,59.7,58.8,30.10,West,280,2.0,6.0,97,0.00,,,0.00,meteohub,2013-09-19 09:57:00,
2013-09-19 06:02:00,59.7,58.8,30.10,West,281,5.0,6.0,97,0.00,,,0.00,meteohub,2013-09-19 10:02:00,
2013-09-19 06:07:00,59.7,58.8,30.10,WSW,255,2.0,7.0,97,0.00,,,0.00,meteohub,2013-09-19 10:07:00,
2013-09-19 06:12:00,59.7,58.8,30.10,WSW,240,3.0,7.0,97,0.00,,,0.00,meteohub,2013-09-19 10:12:00,
2013-09-19 06:17:00,59.7,58.8,30.10,WNW,283,0.0,7.0,97,0.00,,,0.00,meteohub,2013-09-19 10:17:00,
2013-09-19 06:22:00,59.7,58.8,30.10,WNW,283,0.0,6.0,97,0.00,,,0.00,meteohub,2013-09-19 10:22:00,
2013-09-19 06:27:00,59.7,58.8,30.10,WNW,283,2.0,6.0,97,0.00,,,0.00,meteohub,2013-09-19 10:27:00,
2013-09-19 06:32:00,59.7,59.2,30.10,WNW,283,0.0,2.0,98,0.00,,,0.00,meteohub,2013-09-19 10:32:00,
2013-09-19 06:37:00,59.7,58.8,30.10,WNW,283,0.0,3.0,97,0.00,,,0.00,meteohub,2013-09-19 10:37:00,
2013-09-19 06:42:00,59.9,59.0,30.10,WNW,283,1.0,3.0,97,0.00,,,0.00,meteohub,2013-09-19 10:42:00,
2013-09-19 06:47:00,59.9,59.0,30.10,WNW,283,0.0,3.0,97,0.00,,,0.00,meteohub,2013-09-19 10:47:00,
2013-09-19 06:52:00,59.9,59.0,30.10,WNW,283,0.0,3.0,97,0.00,,,0.00,meteohub,2013-09-19 10:52:00,
2013-09-19 06:57:00,59.9,59.0,30.11,WNW,283,0.0,3.0,97,0.00,,,0.00,meteohub,2013-09-19 10:57:00,
2013-09-19 07:02:00,59.9,59.0,30.11,WNW,283,0.0,3.0,97,0.00,,,0.00,meteohub,2013-09-19 11:02:00,
2013-09-19 07:07:00,59.9,59.0,30.11,West,264,1.0,3.0,97,0.00,,,0.00,meteohub,2013-09-19 11:07:00,
2013-09-19 07:12:00,59.9,59.0,30.11,West,264,0.0,3.0,97,0.00,,,0.00,meteohub,2013-09-19 11:12:00,
2013-09-19 07:17:00,59.9,59.0,30.11,West,264,0.0,3.0,97,0.00,,,0.00,meteohub,2013-09-19 11:17:00,
2013-09-19 07:22:00,59.9,59.0,30.11,West,264,1.0,2.0,97,0.00,,,0.00,meteohub,2013-09-19 11:22:00,
2013-09-19 07:27:00,60.1,59.2,30.12,West,264,0.0,2.0,97,0.00,,,0.00,meteohub,2013-09-19 11:27:00,
2013-09-19 07:32:00,60.1,59.2,30.12,West,264,0.0,2.0,97,0.00,,,0.00,meteohub,2013-09-19 11:32:00,
2013-09-19 07:37:00,60.1,59.2,30.12,West,264,1.0,3.0,97,0.00,,,0.00,meteohub,2013-09-19 11:37:00,
2013-09-19 07:42:00,60.1,59.2,30.12,West,264,2.0,3.0,97,0.00,,,0.00,meteohub,2013-09-19 11:42:00,
2013-09-19 07:47:00,60.1,59.5,30.12,West,264,0.0,2.0,98,0.00,,,0.00,meteohub,2013-09-19 11:47:00,
2013-09-19 07:52:00,60.3,59.7,30.12,West,264,0.0,3.0,98,0.00,,,0.00,meteohub,2013-09-19 11:52:00,
2013-09-19 07:57:00,60.3,59.7,30.12,WSW,250,2.0,3.0,98,0.00,,,0.00,meteohub,2013-09-19 11:57:00,
2013-09-19 08:02:00,60.3,59.7,30.12,WSW,250,0.0,5.0,98,0.00,,,0.00,meteohub,2013-09-19 12:02:00,
2013-09-19 08:07:00,60.3,59.7,30.12,SW,219,2.0,5.0,98,0.00,,,0.00,meteohub,2013-09-19 12:07:00,
2013-09-19 08:12:00,60.3,59.7,30.12,West,277,1.0,5.0,98,0.00,,,0.00,meteohub,2013-09-19 12:12:00,
2013-09-19 08:17:00,60.3,59.7,30.12,WSW,252,1.0,4.0,98,0.00,,,0.00,meteohub,2013-09-19 12:17:00,
2013-09-19 08:22:00,60.3,59.7,30.12,WSW,243,0.0,4.0,98,0.00,,,0.00,meteohub,2013-09-19 12:22:00,
2013-09-19 08:27:00,60.4,59.9,30.12,WSW,253,3.0,5.0,98,0.00,,,0.00,meteohub,2013-09-19 12:27:00,
2013-09-19 08:32:00,60.4,59.9,30.12,WSW,253,1.0,5.0,98,0.00,,,0.00,meteohub,2013-09-19 12:32:00,
2013-09-19 08:37:00,60.4,59.9,30.12,WSW,245,2.0,5.0,98,0.00,,,0.00,meteohub,2013-09-19 12:37:00,
2013-09-19 08:42:00,60.4,59.9,30.12,WSW,245,0.0,4.0,98,0.00,,,0.00,meteohub,2013-09-19 12:42:00,
2013-09-19 08:47:00,60.6,60.1,30.12,WSW,245,0.0,3.0,98,0.00,,,0.00,meteohub,2013-09-19 12:47:00,
2013-09-19 08:52:00,60.8,60.3,30.12,WSW,245,0.0,3.0,98,0.00,,,0.00,meteohub,2013-09-19 12:52:00,
2013-09-19 08:57:00,61.0,60.4,30.12,WSW,245,0.0,3.0,98,0.00,,,0.00,meteohub,2013-09-19 12:57:00,
2013-09-19 09:02:00,61.0,60.4,30.12,WSW,245,0.0,3.0,98,0.00,,,0.00,meteohub,2013-09-19 13:02:00,
2013-09-19 09:07:00,61.2,60.6,30.12,WSW,245,2.0,3.0,98,0.00,,,0.00,meteohub,2013-09-19 13:07:00,
2013-09-19 09:12:00,61.2,60.6,30.12,WSW,244,1.0,4.0,98,0.00,,,0.00,meteohub,2013-09-19 13:12:00,
2013-09-19 09:17:00,61.2,60.6,30.12,WSW,244,1.0,4.0,98,0.00,,,0.00,meteohub,2013-09-19 13:17:00,
2013-09-19 09:22:00,61.2,60.6,30.12,WSW,239,3.0,4.0,98,0.00,,,0.00,meteohub,2013-09-19 13:22:00,
2013-09-19 09:27:00,61.3,60.8,30.12,SSW,209,0.0,4.0,98,0.00,,,0.00,meteohub,2013-09-19 13:27:00,
2013-09-19 09:32:00,61.3,60.8,30.12,SSW,209,2.0,4.0,98,0.00,,,0.00,meteohub,2013-09-19 13:32:00,
2013-09-19 09:37:00,61.5,61.0,30.12,SW,216,3.0,4.0,98,0.00,,,0.00,meteohub,2013-09-19 13:37:00,
2013-09-19 09:42:00,61.7,61.2,30.12,West,275,2.0,4.0,98,0.00,,,0.00,meteohub,2013-09-19 13:42:00,
2013-09-19 09:47:00,61.9,61.3,30.13,WNW,288,1.0,4.0,98,0.00,,,0.00,meteohub,2013-09-19 13:47:00,
2013-09-19 09:52:00,62.1,61.5,30.13,West,261,2.0,5.0,98,0.00,,,0.00,meteohub,2013-09-19 13:52:00,
2013-09-19 09:57:00,62.1,61.5,30.13,West,267,0.0,5.0,98,0.00,,,0.00,meteohub,2013-09-19 13:57:00,
2013-09-19 10:02:00,62.1,61.5,30.12,West,260,1.0,5.0,98,0.00,,,0.00,meteohub,2013-09-19 14:02:00,
2013-09-19 10:07:00,62.2,61.7,30.12,West,278,3.0,5.0,98,0.00,,,0.00,meteohub,2013-09-19 14:07:00,
2013-09-19 10:12:00,62.2,61.7,30.12,WSW,254,3.0,4.0,98,0.00,,,0.00,meteohub,2013-09-19 14:12:00,
2013-09-19 10:17:00,62.4,61.9,30.12,WSW,254,0.0,4.0,98,0.00,,,0.00,meteohub,2013-09-19 14:17:00,
2013-09-19 10:22:00,62.4,61.9,30.12,SW,217,1.0,4.0,98,0.00,,,0.00,meteohub,2013-09-19 14:22:00,
2013-09-19 10:27:00,62.6,62.1,30.12,WSW,256,0.0,5.0,98,0.00,,,0.00,meteohub,2013-09-19 14:27:00,
2013-09-19 10:32:00,62.8,62.2,30.12,WSW,251,2.0,5.0,98,0.00,,,0.00,meteohub,2013-09-19 14:32:00,
2013-09-19 10:37:00,63.0,62.4,30.12,SSW,194,2.0,5.0,98,0.00,,,0.00,meteohub,2013-09-19 14:37:00,
2013-09-19 10:42:00,63.0,62.4,30.12,South,181,1.0,5.0,98,0.00,,,0.00,meteohub,2013-09-19 14:42:00,
2013-09-19 10:47:00,63.1,62.6,30.12,SW,229,5.0,5.0,98,0.00,,,0.00,meteohub,2013-09-19 14:47:00,
2013-09-19 10:52:00,63.0,62.4,30.12,SW,219,3.0,5.0,98,0.00,,,0.00,meteohub,2013-09-19 14:52:00,
2013-09-19 10:57:00,63.1,62.6,30.12,SSW,198,3.0,6.0,98,0.00,,,0.00,meteohub,2013-09-19 14:57:00,
2013-09-19 11:02:00,63.3,62.8,30.12,South,187,3.0,6.0,98,0.00,,,0.00,meteohub,2013-09-19 15:02:00,
2013-09-19 11:07:00,63.7,63.1,30.12,South,175,3.0,6.0,98,0.00,,,0.00,meteohub,2013-09-19 15:07:00,
2013-09-19 11:12:00,63.9,63.3,30.11,SW,225,3.0,6.0,98,0.00,,,0.00,meteohub,2013-09-19 15:12:00,
2013-09-19 11:17:00,63.9,63.3,30.11,SSW,199,2.0,7.0,98,0.00,,,0.00,meteohub,2013-09-19 15:17:00,
2013-09-19 11:22:00,63.9,63.0,30.11,South,180,4.0,8.0,97,0.00,,,0.00,meteohub,2013-09-19 15:22:00,
2013-09-19 11:27:00,64.2,63.3,30.11,SW,223,4.0,10.0,97,0.00,,,0.00,meteohub,2013-09-19 15:27:00,
2013-09-19 11:32:00,64.2,63.3,30.11,SW,223,2.0,10.0,97,0.00,,,0.00,meteohub,2013-09-19 15:32:00,
2013-09-19 11:37:00,64.6,63.7,30.11,SW,221,1.0,8.0,97,0.00,,,0.00,meteohub,2013-09-19 15:37:00,
2013-09-19 11:42:00,64.4,63.3,30.11,SW,227,3.0,6.0,96,0.00,,,0.00,meteohub,2013-09-19 15:42:00,
2013-09-19 11:47:00,64.4,63.0,30.11,SW,234,3.0,6.0,95,0.00,,,0.00,meteohub,2013-09-19 15:47:00,
2013-09-19 11:52:00,64.6,63.1,30.11,WSW,240,3.0,7.0,95,0.00,,,0.00,meteohub,2013-09-19 15:52:00,
2013-09-19 11:57:00,64.6,63.1,30.11,SSW,199,0.0,7.0,95,0.00,,,0.00,meteohub,2013-09-19 15:57:00,
2013-09-19 12:02:00,64.6,62.8,30.10,SSW,211,3.0,7.0,94,0.00,,,0.00,meteohub,2013-09-19 16:02:00,
2013-09-19 12:07:00,64.8,63.0,30.10,SW,225,2.0,7.0,94,0.00,,,0.00,meteohub,2013-09-19 16:07:00,
2013-09-19 12:12:00,64.8,63.0,30.10,SSW,197,2.0,7.0,94,0.00,,,0.00,meteohub,2013-09-19 16:12:00,
2013-09-19 12:17:00,64.6,62.8,30.10,SW,232,4.0,8.0,94,0.00,,,0.00,meteohub,2013-09-19 16:17:00,
2013-09-19 12:22:00,64.6,62.8,30.10,SW,220,2.0,8.0,94,0.00,,,0.00,meteohub,2013-09-19 16:22:00,
2013-09-19 12:27:00,64.8,63.0,30.10,WSW,251,3.0,8.0,94,0.00,,,0.00,meteohub,2013-09-19 16:27:00,
2013-09-19 12:32:00,64.8,63.0,30.10,SW,225,0.0,6.0,94,0.00,,,0.00,meteohub,2013-09-19 16:32:00,
2013-09-19 12:37:00,64.8,63.0,30.10,South,188,2.0,6.0,94,0.00,,,0.00,meteohub,2013-09-19 16:37:00,
2013-09-19 12:42:00,64.8,63.0,30.10,WSW,257,2.0,6.0,94,0.00,,,0.00,meteohub,2013-09-19 16:42:00,
2013-09-19 12:47:00,64.8,63.0,30.10,SSW,212,4.0,7.0,94,0.00,,,0.00,meteohub,2013-09-19 16:47:00,
2013-09-19 12:52:00,64.9,63.1,30.10,SW,229,2.0,7.0,94,0.00,,,0.00,meteohub,2013-09-19 16:52:00,
2013-09-19 12:57:00,64.9,62.8,30.10,WSW,251,3.0,7.0,93,0.00,,,0.00,meteohub,2013-09-19 16:57:00,
2013-09-19 13:02:00,65.1,63.0,30.10,SSW,203,4.0,6.0,93,0.00,,,0.00,meteohub,2013-09-19 17:02:00,
2013-09-19 13:07:00,65.5,63.3,30.10,SSW,202,1.0,7.0,93,0.00,,,0.00,meteohub,2013-09-19 17:07:00,
2013-09-19 13:12:00,65.7,63.3,30.09,SW,219,5.0,8.0,92,0.00,,,0.00,meteohub,2013-09-19 17:12:00,
2013-09-19 13:17:00,65.8,63.5,30.09,SSE,160,3.0,8.0,92,0.00,,,0.00,meteohub,2013-09-19 17:17:00,
2013-09-19 13:22:00,66.4,63.7,30.09,South,187,2.0,9.0,91,0.00,,,0.00,meteohub,2013-09-19 17:22:00,
2013-09-19 13:27:00,66.7,63.7,30.09,SSW,196,6.0,10.0,90,0.00,,,0.00,meteohub,2013-09-19 17:27:00,
2013-09-19 13:32:00,66.9,63.9,30.09,SW,221,5.0,10.0,90,0.00,,,0.00,meteohub,2013-09-19 17:32:00,
2013-09-19 13:37:00,67.3,64.2,30.08,SW,236,0.0,10.0,90,0.00,,,0.00,meteohub,2013-09-19 17:37:00,
2013-09-19 13:42:00,67.6,64.2,30.09,SSW,201,2.0,9.0,89,0.00,,,0.00,meteohub,2013-09-19 17:42:00,
2013-09-19 13:47:00,68.2,64.4,30.08,SSW,195,0.0,9.0,88,0.00,,,0.00,meteohub,2013-09-19 17:47:00,
2013-09-19 13:52:00,68.5,64.8,30.08,SSW,208,6.0,7.0,88,0.00,,,0.00,meteohub,2013-09-19 17:52:00,
2013-09-19 13:57:00,68.7,64.4,30.08,SW,217,3.0,7.0,86,0.00,,,0.00,meteohub,2013-09-19 17:57:00,
2013-09-19 14:02:00,68.7,64.4,30.07,SSW,197,6.0,9.0,86,0.00,,,0.00,meteohub,2013-09-19 18:02:00,
2013-09-19 14:07:00,69.3,64.6,30.07,SW,235,4.0,9.0,85,0.00,,,0.00,meteohub,2013-09-19 18:07:00,
2013-09-19 14:12:00,70.2,65.1,30.07,West,280,6.0,10.0,84,0.00,,,0.00,meteohub,2013-09-19 18:12:00,
2013-09-19 14:17:00,71.1,65.3,30.07,WNW,285,4.0,10.0,82,0.00,,,0.00,meteohub,2013-09-19 18:17:00,
2013-09-19 14:22:00,71.8,65.3,30.07,South,178,1.0,10.0,80,0.00,,,0.00,meteohub,2013-09-19 18:22:00,
2013-09-19 14:27:00,71.8,65.3,30.07,SW,217,3.0,7.0,80,0.00,,,0.00,meteohub,2013-09-19 18:27:00,
2013-09-19 14:32:00,72.1,66.0,30.07,SW,227,8.0,8.0,81,0.00,,,0.00,meteohub,2013-09-19 18:32:00,
2013-09-19 14:37:00,72.0,65.5,30.06,West,261,3.0,9.0,80,0.00,,,0.00,meteohub,2013-09-19 18:37:00,
2013-09-19 14:42:00,71.8,64.9,30.06,SW,218,4.0,10.0,79,0.00,,,0.00,meteohub,2013-09-19 18:42:00,
2013-09-19 14:47:00,71.4,64.9,30.06,West,280,2.0,10.0,80,0.00,,,0.00,meteohub,2013-09-19 18:47:00,
2013-09-19 14:52:00,71.6,65.1,30.06,WSW,240,3.0,10.0,80,0.00,,,0.00,meteohub,2013-09-19 18:52:00,
2013-09-19 14:57:00,71.4,65.3,30.06,WSW,239,4.0,9.0,81,0.00,,,0.00,meteohub,2013-09-19 18:57:00,
2013-09-19 15:02:00,71.8,65.7,30.06,WSW,238,5.0,9.0,81,0.00,,,0.00,meteohub,2013-09-19 19:02:00,
2013-09-19 15:07:00,71.8,65.3,30.06,South,178,4.0,9.0,80,0.00,,,0.00,meteohub,2013-09-19 19:07:00,
2013-09-19 15:12:00,71.1,64.6,30.05,WNW,296,2.0,10.0,80,0.00,,,0.00,meteohub,2013-09-19 19:12:00,
2013-09-19 15:17:00,70.7,64.6,30.05,SSW,196,5.0,10.0,81,0.00,,,0.00,meteohub,2013-09-19 19:17:00,
2013-09-19 15:22:00,70.7,64.9,30.05,SW,232,4.0,10.0,82,0.00,,,0.00,meteohub,2013-09-19 19:22:00,
2013-09-19 15:27:00,70.9,64.8,30.05,WSW,250,7.0,7.0,81,0.00,,,0.00,meteohub,2013-09-19 19:27:00,
2013-09-19 15:32:00,70.5,64.4,30.05,South,178,2.0,8.0,81,0.00,,,0.00,meteohub,2013-09-19 19:32:00,
2013-09-19 15:37:00,70.5,64.8,30.05,South,171,3.0,11.0,82,0.00,,,0.00,meteohub,2013-09-19 19:37:00,
2013-09-19 15:42:00,70.5,64.4,30.05,WSW,244,5.0,11.0,81,0.00,,,0.00,meteohub,2013-09-19 19:42:00,
2013-09-19 15:47:00,71.2,65.5,30.05,South,186,5.0,11.0,82,0.00,,,0.00,meteohub,2013-09-19 19:47:00,
2013-09-19 15:52:00,71.4,65.3,30.05,SSW,197,4.0,8.0,81,0.00,,,0.00,meteohub,2013-09-19 19:52:00,
2013-09-19 15:57:00,71.4,65.3,30.04,SSW,196,4.0,7.0,81,0.00,,,0.00,meteohub,2013-09-19 19:57:00,
2013-09-19 16:02:00,71.6,65.1,30.05,SSW,205,3.0,8.0,80,0.00,,,0.00,meteohub,2013-09-19 20:02:00,
2013-09-19 16:07:00,72.0,65.5,30.04,South,178,2.0,8.0,80,0.00,,,0.00,meteohub,2013-09-19 20:07:00,
2013-09-19 16:12:00,72.0,65.1,30.04,SSW,196,5.0,8.0,79,0.00,,,0.00,meteohub,2013-09-19 20:12:00,
2013-09-19 16:17:00,71.6,65.1,30.04,SW,217,2.0,8.0,80,0.00,,,0.00,meteohub,2013-09-19 20:17:00,
2013-09-19 16:22:00,71.4,65.3,30.05,SW,228,4.0,7.0,81,0.00,,,0.00,meteohub,2013-09-19 20:22:00,
2013-09-19 16:27:00,71.2,65.1,30.05,SW,219,6.0,7.0,81,0.00,,,0.00,meteohub,2013-09-19 20:27:00,
2013-09-19 16:32:00,71.1,64.9,30.05,SSE,157,4.0,6.0,81,0.00,,,0.00,meteohub,2013-09-19 20:32:00,
2013-09-19 16:37:00,70.9,65.1,30.05,SSW,205,2.0,6.0,82,0.00,,,0.00,meteohub,2013-09-19 20:37:00,
2013-09-19 16:42:00,70.7,65.3,30.05,SSW,192,0.0,6.0,83,0.00,,,0.00,meteohub,2013-09-19 20:42:00,
2013-09-19 16:47:00,70.7,64.9,30.05,South,174,2.0,5.0,82,0.00,,,0.00,meteohub,2013-09-19 20:47:00,
2013-09-19 16:52:00,70.7,64.9,30.05,SW,217,1.0,5.0,82,0.00,,,0.00,meteohub,2013-09-19 20:52:00,
2013-09-19 16:57:00,70.7,64.9,30.05,SW,220,2.0,5.0,82,0.00,,,0.00,meteohub,2013-09-19 20:57:00,
2013-09-19 17:02:00,70.7,65.3,30.05,WSW,245,4.0,5.0,83,0.00,,,0.00,meteohub,2013-09-19 21:02:00,
2013-09-19 17:07:00,70.5,65.1,30.05,SW,230,4.0,5.0,83,0.00,,,0.00,meteohub,2013-09-19 21:07:00,
2013-09-19 17:12:00,70.5,65.1,30.05,SW,222,2.0,5.0,83,0.00,,,0.00,meteohub,2013-09-19 21:12:00,
2013-09-19 17:17:00,70.5,65.1,30.05,SSW,206,1.0,6.0,83,0.00,,,0.00,meteohub,2013-09-19 21:17:00,
2013-09-19 17:22:00,70.5,65.5,30.05,SW,217,2.0,6.0,84,0.00,,,0.00,meteohub,2013-09-19 21:22:00,
2013-09-19 17:27:00,70.5,65.5,30.05,South,187,4.0,6.0,84,0.00,,,0.00,meteohub,2013-09-19 21:27:00,
2013-09-19 17:32:00,70.5,65.1,30.05,SSW,209,2.0,5.0,83,0.00,,,0.00,meteohub,2013-09-19 21:32:00,
2013-09-19 17:37:00,70.5,65.5,30.05,SSW,192,1.0,5.0,84,0.00,,,0.00,meteohub,2013-09-19 21:37:00,
2013-09-19 17:42:00,70.5,65.5,30.05,South,191,3.0,5.0,84,0.00,,,0.00,meteohub,2013-09-19 21:42:00,
2013-09-19 17:47:00,70.5,65.5,30.05,SW,223,0.0,8.0,84,0.00,,,0.00,meteohub,2013-09-19 21:47:00,
2013-09-19 17:52:00,70.5,65.5,30.05,WSW,247,0.0,8.0,84,0.00,,,0.00,meteohub,2013-09-19 21:52:00,
2013-09-19 17:57:00,70.3,65.3,30.05,SW,217,2.0,6.0,84,0.00,,,0.00,meteohub,2013-09-19 21:57:00,
2013-09-19 18:02:00,70.3,65.3,30.05,SSW,211,1.0,8.0,84,0.00,,,0.00,meteohub,2013-09-19 22:02:00,
2013-09-19 18:07:00,70.2,65.1,30.05,SW,235,3.0,8.0,84,0.00,,,0.00,meteohub,2013-09-19 22:07:00,
2013-09-19 18:12:00,70.2,65.5,30.05,SW,225,3.0,8.0,85,0.00,,,0.00,meteohub,2013-09-19 22:12:00,
2013-09-19 18:17:00,70.0,65.3,30.05,SW,214,2.0,6.0,85,0.00,,,0.00,meteohub,2013-09-19 22:17:00,
2013-09-19 18:22:00,70.0,65.3,30.05,SSW,194,1.0,5.0,85,0.00,,,0.00,meteohub,2013-09-19 22:22:00,
2013-09-19 18:27:00,70.0,65.3,30.05,WSW,246,2.0,4.0,85,0.00,,,0.00,meteohub,2013-09-19 22:27:00,
2013-09-19 18:32:00,69.8,65.1,30.05,WSW,246,0.0,4.0,85,0.00,,,0.00,meteohub,2013-09-19 22:32:00,
2013-09-19 18:37:00,69.6,65.3,30.05,SW,235,3.0,4.0,86,0.00,,,0.00,meteohub,2013-09-19 22:37:00,
2013-09-19 18:42:00,69.6,65.3,30.05,SW,235,0.0,4.0,86,0.00,,,0.00,meteohub,2013-09-19 22:42:00,
2013-09-19 18:47:00,69.4,65.1,30.05,SW,235,0.0,4.0,86,0.00,,,0.00,meteohub,2013-09-19 22:47:00,
2013-09-19 18:52:00,69.3,64.9,30.04,SW,235,1.0,3.0,86,0.00,,,0.00,meteohub,2013-09-19 22:52:00,
2013-09-19 18:57:00,69.1,64.8,30.04,SW,235,0.0,2.0,86,0.00,,,0.00,meteohub,2013-09-19 22:57:00,
2013-09-19 19:02:00,68.9,64.6,30.04,SW,235,0.0,2.0,86,0.00,,,0.00,meteohub,2013-09-19 23:02:00,
2013-09-19 19:07:00,68.5,64.6,30.04,SW,235,2.0,2.0,87,0.00,,,0.00,meteohub,2013-09-19 23:07:00,
2013-09-19 19:12:00,68.4,64.4,30.04,SW,235,0.0,3.0,87,0.00,,,0.00,meteohub,2013-09-19 23:12:00,
2013-09-19 19:17:00,68.2,64.4,30.04,SW,235,0.0,3.0,88,0.00,,,0.00,meteohub,2013-09-19 23:17:00,
2013-09-19 19:22:00,67.8,64.2,30.04,SW,235,1.0,3.0,88,0.00,,,0.00,meteohub,2013-09-19 23:22:00,
2013-09-19 19:27:00,67.6,64.0,30.04,SW,235,0.0,3.0,88,0.00,,,0.00,meteohub,2013-09-19 23:27:00,
2013-09-19 19:32:00,67.3,63.9,30.03,SW,235,1.0,2.0,89,0.00,,,0.00,meteohub,2013-09-19 23:32:00,
2013-09-19 19:37:00,67.1,63.7,30.03,SW,235,0.0,2.0,89,0.00,,,0.00,meteohub,2013-09-19 23:37:00,
2013-09-19 19:42:00,66.7,63.3,30.03,SW,235,0.0,2.0,89,0.00,,,0.00,meteohub,2013-09-19 23:42:00,
2013-09-19 19:47:00,66.6,63.5,30.03,SW,233,0.0,4.0,90,0.00,,,0.00,meteohub,2013-09-19 23:47:00,
2013-09-19 19:52:00,66.4,63.3,30.03,SW,234,0.0,4.0,90,0.00,,,0.00,meteohub,2013-09-19 23:52:00,
2013-09-19 19:57:00,66.2,63.1,30.03,SW,234,0.0,4.0,90,0.00,,,0.00,meteohub,2013-09-19 23:57:00,
2013-09-19 20:02:00,66.0,63.0,30.03,SW,234,0.0,2.0,90,0.00,,,0.00,meteohub,2013-09-20 00:02:00,
2013-09-19 20:07:00,65.8,63.1,30.03,SW,234,0.0,3.0,91,0.00,,,0.00,meteohub,2013-09-20 00:07:00,
2013-09-19 20:12:00,65.7,63.0,30.03,SW,234,1.0,3.0,91,0.00,,,0.00,meteohub,2013-09-20 00:12:00,
2013-09-19 20:17:00,65.5,62.8,30.03,SW,234,0.0,2.0,91,0.00,,,0.00,meteohub,2013-09-20 00:17:00,
2013-09-19 20:22:00,65.5,63.1,30.03,SW,234,0.0,2.0,92,0.00,,,0.00,meteohub,2013-09-20 00:22:00,
2013-09-19 20:27:00,65.1,62.8,30.03,SW,234,0.0,2.0,92,0.00,,,0.00,meteohub,2013-09-20 00:27:00,
2013-09-19 20:32:00,65.1,62.8,30.03,SW,234,0.0,2.0,92,0.00,,,0.00,meteohub,2013-09-20 00:32:00,
2013-09-19 20:37:00,64.9,62.6,30.03,SW,234,0.0,2.0,92,0.00,,,0.00,meteohub,2013-09-20 00:37:00,
2013-09-19 20:42:00,64.8,62.4,30.02,SW,234,0.0,2.0,92,0.00,,,0.00,meteohub,2013-09-20 00:42:00,
2013-09-19 20:47:00,64.6,62.4,30.02,SW,234,1.0,2.0,93,0.00,,,0.00,meteohub,2013-09-20 00:47:00,
2013-09-19 20:52:00,64.4,62.4,30.02,SW,234,0.0,2.0,93,0.00,,,0.00,meteohub,2013-09-20 00:52:00,
2013-09-19 20:57:00,64.2,62.2,30.02,SW,234,0.0,3.0,93,0.00,,,0.00,meteohub,2013-09-20 00:57:00,
2013-09-19 21:02:00,64.2,62.4,30.02,SW,233,0.0,3.0,94,0.00,,,0.00,meteohub,2013-09-20 01:02:00,
2013-09-19 21:07:00,64.0,62.2,30.02,SW,233,2.0,3.0,94,0.00,,,0.00,meteohub,2013-09-20 01:07:00,
2013-09-19 21:12:00,63.9,62.1,30.02,SW,233,0.0,3.0,94,0.00,,,0.00,meteohub,2013-09-20 01:12:00,
2013-09-19 21:17:00,63.9,62.1,30.02,SW,233,1.0,3.0,94,0.00,,,0.00,meteohub,2013-09-20 01:17:00,
2013-09-19 21:22:00,63.9,62.1,30.01,SW,233,2.0,3.0,94,0.00,,,0.00,meteohub,2013-09-20 01:22:00,
2013-09-19 21:27:00,63.7,61.9,30.02,SSW,213,1.0,4.0,94,0.00,,,0.00,meteohub,2013-09-20 01:27:00,
2013-09-19 21:32:00,63.5,62.1,30.02,SW,219,0.0,4.0,95,0.00,,,0.00,meteohub,2013-09-20 01:32:00,
2013-09-19 21:37:00,63.5,62.1,30.01,WSW,250,0.0,4.0,95,0.00,,,0.00,meteohub,2013-09-20 01:37:00,
2013-09-19 21:42:00,63.3,61.9,30.02,NNW,336,1.0,3.0,95,0.00,,,0.00,meteohub,2013-09-20 01:42:00,
2013-09-19 21:47:00,63.3,61.9,30.01,WNW,289,0.0,4.0,95,0.00,,,0.00,meteohub,2013-09-20 01:47:00,
2013-09-19 21:52:00,63.1,61.7,30.01,WNW,286,0.0,4.0,95,0.00,,,0.00,meteohub,2013-09-20 01:52:00,
2013-09-19 21:57:00,63.1,61.7,30.01,SW,218,4.0,4.0,95,0.00,,,0.00,meteohub,2013-09-20 01:57:00,
2013-09-19 22:02:00,63.1,61.7,30.01,South,178,0.0,4.0,95,0.00,,,0.00,meteohub,2013-09-20 02:02:00,
2013-09-19 22:07:00,63.1,61.7,30.01,SW,221,1.0,4.0,95,0.00,,,0.00,meteohub,2013-09-20 02:07:00,
2013-09-19 22:12:00,63.0,61.5,30.01,South,191,1.0,4.0,95,0.00,,,0.00,meteohub,2013-09-20 02:12:00,
2013-09-19 22:17:00,63.0,61.5,30.02,NW,308,1.0,3.0,95,0.00,,,0.00,meteohub,2013-09-20 02:17:00,
2013-09-19 22:22:00,63.0,61.5,30.02,WSW,246,0.0,3.0,95,0.00,,,0.00,meteohub,2013-09-20 02:22:00,
2013-09-19 22:27:00,63.0,61.9,30.02,WSW,245,2.0,3.0,96,0.00,,,0.00,meteohub,2013-09-20 02:27:00,
2013-09-19 22:32:00,63.0,61.9,30.02,WSW,245,0.0,3.0,96,0.00,,,0.00,meteohub,2013-09-20 02:32:00,
2013-09-19 22:37:00,63.0,61.5,30.02,WSW,245,1.0,3.0,95,0.00,,,0.00,meteohub,2013-09-20 02:37:00,
2013-09-19 22:42:00,62.8,61.3,30.02,WSW,245,0.0,3.0,95,0.00,,,0.00,meteohub,2013-09-20 02:42:00,
2013-09-19 22:47:00,62.8,61.3,30.02,WSW,245,0.0,3.0,95,0.00,,,0.00,meteohub,2013-09-20 02:47:00,
2013-09-19 22:52:00,62.8,61.7,30.03,NW,309,1.0,2.0,96,0.00,,,0.00,meteohub,2013-09-20 02:52:00,
2013-09-19 22:57:00,63.0,61.9,30.03,WNW,289,2.0,5.0,96,0.00,,,0.00,meteohub,2013-09-20 02:57:00,
2013-09-19 23:02:00,63.1,62.1,30.03,West,264,2.0,5.0,96,0.00,,,0.00,meteohub,2013-09-20 03:02:00,
2013-09-19 23:07:00,63.3,62.2,30.02,WSW,258,2.0,5.0,96,0.00,,,0.00,meteohub,2013-09-20 03:07:00,
2013-09-19 23:12:00,63.3,61.9,30.03,NW,310,2.0,5.0,95,0.00,,,0.00,meteohub,2013-09-20 03:12:00,
2013-09-19 23:17:00,63.3,61.9,30.02,NW,326,1.0,5.0,95,0.00,,,0.00,meteohub,2013-09-20 03:17:00,
2013-09-19 23:22:00,63.7,62.6,30.03,NNW,342,4.0,6.0,96,0.00,,,0.00,meteohub,2013-09-20 03:22:00,
2013-09-19 23:27:00,63.7,62.2,30.03,SW,216,2.0,6.0,95,0.00,,,0.00,meteohub,2013-09-20 03:27:00,
2013-09-19 23:32:00,63.9,62.4,30.03,West,279,3.0,7.0,95,0.00,,,0.00,meteohub,2013-09-20 03:32:00,
2013-09-19 23:37:00,63.9,62.4,30.03,WNW,291,2.0,7.0,95,0.00,,,0.00,meteohub,2013-09-20 03:37:00,
2013-09-19 23:42:00,64.0,62.6,30.03,NW,307,1.0,7.0,95,0.00,,,0.00,meteohub,2013-09-20 03:42:00,
2013-09-19 23:47:00,64.0,62.6,30.03,NW,323,6.0,6.0,95,0.00,,,0.00,meteohub,2013-09-20 03:47:00,
2013-09-19 23:52:00,64.2,62.8,30.03,WNW,298,2.0,7.0,95,0.00,,,0.00,meteohub,2013-09-20 03:52:00,
2013-09-19 23:57:00,64.4,62.6,30.03,WNW,301,3.0,7.0,94,0.00,,,0.00,meteohub,2013-09-20 03:57:00,